Terminal Aerodrome Forecast
Issued by NWS

Home | Current Version | Previous Version | Text Only | Print | Product List | Glossary On
Versions: 1 2 3 4 5 6 7 8 9 10 11 12 13 14 15 16 17 18 19 20 21 22 23 24 25 26
000
FTUS46 KSGX 031723
TAFSAN
TAF
KSAN 031723Z 0318/0424 19003KT P6SM FEW017 SCT250
     FM032000 28010KT P6SM SCT020
     FM040300 VRB04KT P6SM OVC012
     FM041900 26008KT P6SM SCT015=

USA.gov is the U.S. government's official web portal to all federal, state and local government web resources and services.